Regional Weather Roundup
Issued by NWS

Home | Current Version | Previous Version | Text Only | Print | Product List | Glossary On
Versions: 1 2 3 4 5 6 7 8 9 10 11 12 13 14 15 16 17 18 19 20 21 22 23 24 25 26 27 28 29 30 31 32 33 34 35 36 37 38 39 40 41 42 43 44 45 46 47 48 49 50
000
ASUS44 KOUN 011300
RWROK

WEATHER ROUNDUP FOR OKLAHOMA
NATIONAL WEATHER SERVICE NORMAN OK
800 AM CDT TUE SEP 01 2015

NOTE: "FAIR" INDICATES FEW OR NO CLOUDS BELOW 12,000 FEET WITH NO
      SIGNIFICANT WEATHER AND/OR OBSTRUCTIONS TO VISIBILITY.

OKZ001>007-009>012-014-015-017-011400-
NORTHWEST OKLAHOMA AND THE PANHANDLE

CITY           SKY/WX    TMP DP  RH WIND       PRES   REMARKS
GAGE           CLEAR     71  61  70 S16       30.00S
GUYMON         PTCLDY    64  54  69 W3        30.01S
ENID/WOODRING  SUNNY     68  64  88 S3        30.01R
$$

OKZ016-021>023-033>039-044-045-011400-
SOUTHWEST OKLAHOMA

CITY           SKY/WX    TMP DP  RH WIND       PRES   REMARKS
LAWTON/REGL    SUNNY     71  65  81 E3        30.03R
LAWTON/FT SILL SUNNY     70  66  87 S3        30.01R
FREDERICK      CLEAR     69  66  90 E6        29.99R
CLINTON        CLEAR     72  63  73 S13       30.04S
HOBART         PTCLDY    73  64  73 S13       30.02S
ALTUS AFB      PTCLDY    70  63  80 SE12      30.01R
$$

OKZ018>020-024>031-011400-
CENTRAL OKLAHOMA

CITY           SKY/WX    TMP DP  RH WIND       PRES   REMARKS
OKLAHOMA CITY  SUNNY     70  65  84 S7        30.03S
OKC/WILEY POST SUNNY     73  64  73 S13       30.03R
OKC/TINKER AFB SUNNY     71  64  77 S12       30.02F
STILLWATER     SUNNY     71  64  78 SE7       30.03R
GUTHRIE        SUNNY     72  64  76 SE8       30.02S
$$

OKZ008-013-054>072-011400-
NORTHEAST OKLAHOMA

CITY           SKY/WX    TMP DP  RH WIND       PRES   REMARKS
TULSA          SUNNY     74  68  81 S6        30.03R
TULSA/JONES    SUNNY     72  67  84 CALM      30.04R
PONCA CITY     SUNNY     74  64  71 S7        30.02S
BARTLESVILLE   SUNNY     69  69 100 CALM      30.05R FOG
MUSKOGEE       SUNNY     71  69  93 S6        30.06R FOG
$$

OKZ032-040>043-046>053-073>077-011400-
SOUTH CENTRAL/SOUTHEAST OKLAHOMA

CITY           SKY/WX    TMP DP  RH WIND       PRES   REMARKS
MCALESTER      PTSUNNY   73  67  81 S3        30.06R
$$




USA.gov is the U.S. government's official web portal to all federal, state and local government web resources and services.